Location: Unspecified
(49.2170°N, 0.0000°E)
Time: 15:08:32
(UTC+00:00)

Tiros 1 - All Passes

Search period start: 16 June 2019 00:00
Search period end: 26 June 2019 00:00
Orbit: 631 x 664 km, 48.4° (Epoch: 16 June)

Date Brightness Start Highest point End Pass type
(mag) Time Alt. Az. Time Alt. Az. Time Alt. Az.
16 Jun - 01:55:15 10° SW 01:59:29 36° SSE 02:03:43 10° E visible
16 Jun - 03:36:43 10° WSW 03:41:22 75° S 03:46:00 10° E daylight
16 Jun - 05:18:53 10° W 05:23:30 74° SSW 05:28:08 10° ESE daylight
16 Jun - 07:01:11 10° W 07:05:23 34° SSW 07:09:33 10° SE daylight
17 Jun - 00:40:28 10° S 00:43:48 20° SE 00:47:09 10° E visible
17 Jun - 02:20:50 10° WSW 02:25:22 55° SSE 02:29:54 10° E visible
17 Jun - 04:02:48 10° W 04:07:27 83° S 04:12:05 10° E daylight
17 Jun - 05:45:00 10° W 05:49:31 56° SSW 05:54:03 10° ESE daylight
17 Jun - 07:27:45 10° W 07:31:05 20° SW 07:34:25 10° S daylight
18 Jun - 01:05:20 10° SW 01:09:31 34° SSE 01:13:43 10° E visible
18 Jun - 02:46:44 10° WSW 02:51:23 74° S 02:56:01 10° E visible
18 Jun - 04:28:54 10° W 04:33:32 76° S 04:38:09 10° ESE daylight
18 Jun - 06:11:11 10° W 06:15:25 36° SSW 06:19:38 10° SE daylight
18 Jun - 23:50:40 10° S 23:53:52 19° SE 23:57:05 10° E visible
19 Jun - 01:30:52 10° SW 01:35:24 53° SSE 01:39:56 10° E visible
19 Jun - 03:12:48 10° W 03:17:28 82° S 03:22:06 10° E visible
19 Jun - 04:55:01 10° W 04:59:33 58° SSW 05:04:06 10° ESE daylight
19 Jun - 06:37:41 10° W 06:41:09 21° SW 06:44:36 10° S daylight
20 Jun - 00:15:25 10° SSW 00:19:34 32° SSE 00:23:43 10° E visible
20 Jun - 01:56:45 10° WSW 02:01:25 72° SSE 02:06:02 10° E visible
20 Jun - 03:38:54 10° W 03:43:33 77° S 03:48:11 10° ESE daylight
20 Jun - 05:21:11 10° W 05:25:28 38° SSW 05:29:44 10° SE daylight
20 Jun - 07:05:41 10° WSW 07:06:42 11° SW 07:07:44 10° SSW daylight
20 Jun - 23:00:52 10° S 23:03:56 17° SE 23:07:00 10° E visible
21 Jun - 00:40:54 10° SW 00:45:26 51° SSE 00:49:57 10° E visible
21 Jun - 02:22:49 10° W 02:27:29 82° S 02:32:08 10° E visible
21 Jun - 04:05:01 10° W 04:09:35 60° SSW 04:14:08 10° ESE daylight
21 Jun - 05:47:38 10° W 05:51:13 22° SW 05:54:46 10° SSE daylight
21 Jun - 23:25:31 10° SSW 23:29:37 31° SSE 23:33:43 10° E visible
22 Jun - 01:06:46 10° WSW 01:11:26 71° SSE 01:16:03 10° E visible
22 Jun - 02:48:55 10° W 02:53:34 78° S 02:58:12 10° ESE visible
22 Jun - 04:31:11 10° W 04:35:30 40° SSW 04:39:49 10° SE daylight
22 Jun - 06:15:13 10° WSW 06:16:47 12° SW 06:18:21 10° SSW daylight
22 Jun - 22:11:05 10° S 22:14:00 16° SE 22:16:54 10° E visible
22 Jun - 23:50:57 10° SW 23:55:28 49° SSE 23:59:58 10° E visible
23 Jun - 01:32:49 10° W 01:37:30 82° S 01:42:09 10° E visible
23 Jun - 03:15:01 10° W 03:19:37 62° SSW 03:24:11 10° ESE daylight
23 Jun - 04:57:35 10° W 05:01:16 24° SW 05:04:56 10° SSE daylight
23 Jun - 22:35:37 10° SSW 22:39:40 29° SSE 22:43:42 10° E visible
24 Jun - 00:16:47 10° WSW 00:21:27 69° SSE 00:26:04 10° E visible
24 Jun - 01:58:55 10° W 02:03:35 79° S 02:08:14 10° E visible
24 Jun - 03:41:10 10° W 03:45:33 42° SSW 03:49:54 10° SE daylight
24 Jun - 05:24:54 10° WSW 05:26:52 13° SW 05:28:49 10° SSW daylight
24 Jun - 21:21:20 10° S 21:24:04 15° SE 21:26:47 10° ESE visible
24 Jun - 23:00:59 10° SW 23:05:30 47° SSE 23:09:59 10° E visible
25 Jun - 00:42:49 10° W 00:47:31 81° S 00:52:10 10° E visible
25 Jun - 02:25:02 10° W 02:29:39 64° SSW 02:34:13 10° ESE visible
25 Jun - 04:07:32 10° W 04:11:20 25° SW 04:15:06 10° SSE daylight
25 Jun - 21:45:43 10° SSW 21:49:42 28° SSE 21:53:41 10° E visible
25 Jun - 23:26:47 10° WSW 23:31:28 67° SSE 23:36:05 10° E visible
